Year,Month,Day,Hour,Minute,Value (Times are PST for temperature in C)
2017,01,21,00,00,4.40
2017,01,21,00,01,4.40
2017,01,21,00,02,4.30
2017,01,21,00,03,4.30
2017,01,21,00,04,4.30
2017,01,21,00,05,4.30
2017,01,21,00,06,4.30
2017,01,21,00,07,4.30
2017,01,21,00,08,4.30
2017,01,21,00,09,4.30
2017,01,21,00,10,4.30
2017,01,21,00,11,4.30
2017,01,21,00,12,4.30
2017,01,21,00,13,4.30
2017,01,21,00,14,4.30
2017,01,21,00,15,4.30
2017,01,21,00,16,4.30
2017,01,21,00,17,4.30
2017,01,21,00,18,4.30
2017,01,21,00,19,4.30
2017,01,21,00,20,4.30
2017,01,21,00,21,4.30
2017,01,21,00,22,4.30
2017,01,21,00,23,4.30
2017,01,21,00,24,4.30
2017,01,21,00,25,4.30
2017,01,21,00,26,4.30
2017,01,21,00,27,4.30
2017,01,21,00,28,4.30
2017,01,21,00,29,4.30
2017,01,21,00,30,4.30
2017,01,21,00,31,4.30
2017,01,21,00,32,4.30
2017,01,21,00,33,4.30
2017,01,21,00,34,4.30
2017,01,21,00,35,4.30
2017,01,21,00,36,4.30
2017,01,21,00,37,4.40
2017,01,21,00,38,4.40
2017,01,21,00,39,4.40
2017,01,21,00,40,4.40
2017,01,21,00,41,4.40
2017,01,21,00,42,4.40
2017,01,21,00,43,4.40
2017,01,21,00,44,4.40
2017,01,21,00,45,4.40
2017,01,21,00,46,4.40
2017,01,21,00,47,4.40
2017,01,21,00,48,4.40
2017,01,21,00,49,4.50
2017,01,21,00,50,4.50
2017,01,21,00,51,4.50
2017,01,21,00,52,4.50
2017,01,21,00,53,4.50
2017,01,21,00,54,4.50
2017,01,21,00,55,4.50
2017,01,21,00,56,4.50
2017,01,21,00,57,4.40
2017,01,21,00,58,4.50
2017,01,21,00,59,4.40
2017,01,21,01,00,4.40
2017,01,21,01,01,4.40
2017,01,21,01,02,4.40
2017,01,21,01,03,4.40
2017,01,21,01,04,4.40
2017,01,21,01,05,4.50
2017,01,21,01,06,4.40
2017,01,21,01,07,4.50
2017,01,21,01,08,4.50
2017,01,21,01,09,4.50
2017,01,21,01,10,4.50
2017,01,21,01,11,4.50
2017,01,21,01,12,4.50
2017,01,21,01,13,4.50
2017,01,21,01,14,4.40
2017,01,21,01,15,4.40
2017,01,21,01,16,4.40
2017,01,21,01,17,4.40
2017,01,21,01,18,4.40
2017,01,21,01,19,4.40
2017,01,21,01,20,4.40
2017,01,21,01,21,4.40
2017,01,21,01,22,4.40
2017,01,21,01,23,4.40
2017,01,21,01,24,4.40
2017,01,21,01,25,4.40
2017,01,21,01,26,4.40
2017,01,21,01,27,4.40
2017,01,21,01,28,4.40
2017,01,21,01,29,4.40
2017,01,21,01,30,4.40
2017,01,21,01,31,4.40
2017,01,21,01,32,4.40
2017,01,21,01,33,4.40
2017,01,21,01,34,4.40
2017,01,21,01,35,4.40
2017,01,21,01,36,4.40
2017,01,21,01,37,4.40
2017,01,21,01,38,4.30
2017,01,21,01,39,4.30
2017,01,21,01,40,4.30
2017,01,21,01,41,4.30
2017,01,21,01,42,4.30
2017,01,21,01,43,4.30
2017,01,21,01,44,4.30
2017,01,21,01,45,4.30
2017,01,21,01,46,4.30
2017,01,21,01,47,4.30
2017,01,21,01,48,4.30
2017,01,21,01,49,4.30
2017,01,21,01,50,4.30
2017,01,21,01,51,4.30
2017,01,21,01,52,4.30
2017,01,21,01,53,4.30
2017,01,21,01,54,4.30
2017,01,21,01,55,4.30
2017,01,21,01,56,4.30
2017,01,21,01,57,4.30
2017,01,21,01,58,4.30
2017,01,21,01,59,4.30
2017,01,21,02,00,4.30
2017,01,21,02,01,4.30
2017,01,21,02,02,4.30
2017,01,21,02,03,4.30
2017,01,21,02,04,4.30
2017,01,21,02,05,4.30
2017,01,21,02,06,4.30
2017,01,21,02,07,4.30
2017,01,21,02,08,4.30
2017,01,21,02,09,4.30
2017,01,21,02,10,4.30
2017,01,21,02,11,4.20
2017,01,21,02,12,4.30
2017,01,21,02,13,4.30
2017,01,21,02,14,4.30
2017,01,21,02,15,4.30
2017,01,21,02,16,4.30
2017,01,21,02,17,4.30
2017,01,21,02,18,4.30
2017,01,21,02,19,4.30
2017,01,21,02,20,4.30
2017,01,21,02,21,4.30
2017,01,21,02,22,4.40
2017,01,21,02,23,4.40
2017,01,21,02,24,4.40
2017,01,21,02,25,4.40
2017,01,21,02,26,4.40
2017,01,21,02,27,4.40
2017,01,21,02,28,4.40
2017,01,21,02,29,4.40
2017,01,21,02,30,4.40
2017,01,21,02,31,4.40
2017,01,21,02,32,4.40
2017,01,21,02,33,4.40
2017,01,21,02,34,4.40
2017,01,21,02,35,4.40
2017,01,21,02,36,4.40
2017,01,21,02,37,4.40
2017,01,21,02,38,4.40
2017,01,21,02,39,4.40
2017,01,21,02,40,4.40
2017,01,21,02,41,4.40
2017,01,21,02,42,4.40
2017,01,21,02,43,4.40
2017,01,21,02,44,4.40
2017,01,21,02,45,4.40
2017,01,21,02,46,4.50
2017,01,21,02,47,4.50
2017,01,21,02,48,4.50
2017,01,21,02,49,4.50
2017,01,21,02,50,4.50
2017,01,21,02,51,4.50
2017,01,21,02,52,4.50
2017,01,21,02,53,4.50
2017,01,21,02,54,4.50
2017,01,21,02,55,4.50
2017,01,21,02,56,4.50
2017,01,21,02,57,4.50
2017,01,21,02,58,4.50
2017,01,21,02,59,4.50
2017,01,21,03,00,4.50
2017,01,21,03,01,4.50
2017,01,21,03,02,4.50
2017,01,21,03,03,4.50
2017,01,21,03,04,4.50
2017,01,21,03,05,4.50
2017,01,21,03,06,4.50
2017,01,21,03,07,4.50
2017,01,21,03,08,4.50
2017,01,21,03,09,4.50
2017,01,21,03,10,4.50
2017,01,21,03,11,4.50
2017,01,21,03,12,4.50
2017,01,21,03,13,4.50
2017,01,21,03,14,4.50
2017,01,21,03,15,4.50
2017,01,21,03,16,4.40
2017,01,21,03,17,4.40
2017,01,21,03,18,4.40
2017,01,21,03,19,4.40
2017,01,21,03,20,4.40
2017,01,21,03,21,4.40
2017,01,21,03,22,4.30
2017,01,21,03,23,4.30
2017,01,21,03,24,4.30
2017,01,21,03,25,4.30
2017,01,21,03,26,4.30
2017,01,21,03,27,4.30
2017,01,21,03,28,4.30
2017,01,21,03,29,4.30
2017,01,21,03,30,4.30
2017,01,21,03,31,4.30
2017,01,21,03,32,4.30
2017,01,21,03,33,4.30
2017,01,21,03,34,4.30
2017,01,21,03,35,4.30
2017,01,21,03,36,4.30
2017,01,21,03,37,4.20
2017,01,21,03,38,4.20
2017,01,21,03,39,4.20
2017,01,21,03,40,4.20
2017,01,21,03,41,4.20
2017,01,21,03,42,4.20
2017,01,21,03,43,4.20
2017,01,21,03,44,4.20
2017,01,21,03,45,4.20
2017,01,21,03,46,4.20
2017,01,21,03,47,4.20
2017,01,21,03,48,4.20
2017,01,21,03,49,4.20
2017,01,21,03,50,4.20
2017,01,21,03,51,4.20
2017,01,21,03,52,4.20
2017,01,21,03,53,4.20
2017,01,21,03,54,4.30
2017,01,21,03,55,4.30
2017,01,21,03,56,4.30
2017,01,21,03,57,4.30
2017,01,21,03,58,4.30
2017,01,21,03,59,4.30
2017,01,21,04,00,4.30
2017,01,21,04,01,4.20
2017,01,21,04,02,4.20
2017,01,21,04,03,4.20
2017,01,21,04,04,4.20
2017,01,21,04,05,4.20
2017,01,21,04,06,4.20
2017,01,21,04,07,4.20
2017,01,21,04,08,4.20
2017,01,21,04,09,4.20
2017,01,21,04,10,4.20
2017,01,21,04,11,4.20
2017,01,21,04,12,4.20
2017,01,21,04,13,4.20
2017,01,21,04,14,4.20
2017,01,21,04,15,4.20
2017,01,21,04,16,4.20
2017,01,21,04,17,4.20
2017,01,21,04,18,4.20
2017,01,21,04,19,4.20
2017,01,21,04,20,4.20
2017,01,21,04,21,4.20
2017,01,21,04,22,4.20
2017,01,21,04,23,4.20
2017,01,21,04,24,4.20
2017,01,21,04,25,4.20
2017,01,21,04,26,4.10
2017,01,21,04,27,4.10
2017,01,21,04,28,4.10
2017,01,21,04,29,4.10
2017,01,21,04,30,4.10
2017,01,21,04,31,4.10
2017,01,21,04,32,4.10
2017,01,21,04,33,4.10
2017,01,21,04,34,4.10
2017,01,21,04,35,4.10
2017,01,21,04,36,4.10
2017,01,21,04,37,4.10
2017,01,21,04,38,4.10
2017,01,21,04,39,4.10
2017,01,21,04,40,4.00
2017,01,21,04,41,4.00
2017,01,21,04,42,4.00
2017,01,21,04,43,4.00
2017,01,21,04,44,4.00
2017,01,21,04,45,4.00
2017,01,21,04,46,4.00
2017,01,21,04,47,4.00
2017,01,21,04,48,4.00
2017,01,21,04,49,3.90
2017,01,21,04,50,3.90
2017,01,21,04,51,3.90
2017,01,21,04,52,3.90
2017,01,21,04,53,3.90
2017,01,21,04,54,3.90
2017,01,21,04,55,3.90
2017,01,21,04,56,3.90
2017,01,21,04,57,3.90
2017,01,21,04,58,3.80
2017,01,21,04,59,3.80
2017,01,21,05,00,3.80
2017,01,21,05,01,3.80
2017,01,21,05,02,3.80
2017,01,21,05,03,3.80
2017,01,21,05,04,3.80
2017,01,21,05,05,3.80
2017,01,21,05,06,3.70
2017,01,21,05,07,3.70
2017,01,21,05,08,3.70
2017,01,21,05,09,3.70
2017,01,21,05,10,3.70
2017,01,21,05,11,3.70
2017,01,21,05,12,3.70
2017,01,21,05,13,3.70
2017,01,21,05,14,3.70
2017,01,21,05,15,3.70
2017,01,21,05,16,3.70
2017,01,21,05,17,3.70
2017,01,21,05,18,3.70
2017,01,21,05,19,3.70
2017,01,21,05,20,3.70
2017,01,21,05,21,3.70
2017,01,21,05,22,3.70
2017,01,21,05,23,3.70
2017,01,21,05,24,3.70
2017,01,21,05,25,3.70
2017,01,21,05,26,3.70
2017,01,21,05,27,3.70
2017,01,21,05,28,3.70
2017,01,21,05,29,3.70
2017,01,21,05,30,3.60
2017,01,21,05,31,3.60
2017,01,21,05,32,3.60
2017,01,21,05,33,3.60
2017,01,21,05,34,3.60
2017,01,21,05,35,3.60
2017,01,21,05,36,3.60
2017,01,21,05,37,3.60
2017,01,21,05,38,3.60
2017,01,21,05,39,3.60
2017,01,21,05,40,3.60
2017,01,21,05,41,3.60
2017,01,21,05,42,3.60
2017,01,21,05,43,3.60
2017,01,21,05,44,3.60
2017,01,21,05,45,3.60
2017,01,21,05,46,3.60
2017,01,21,05,47,3.60
2017,01,21,05,48,3.60
2017,01,21,05,49,3.60
2017,01,21,05,50,3.60
2017,01,21,05,51,3.60
2017,01,21,05,52,3.60
2017,01,21,05,53,3.60
2017,01,21,05,54,3.60
2017,01,21,05,55,3.60
2017,01,21,05,56,3.60
2017,01,21,05,57,3.60
2017,01,21,05,58,3.60
2017,01,21,05,59,3.60
2017,01,21,06,00,3.60
2017,01,21,06,01,3.60
2017,01,21,06,02,3.60
2017,01,21,06,03,3.60
2017,01,21,06,04,3.60
2017,01,21,06,05,3.60
2017,01,21,06,06,3.60
2017,01,21,06,07,3.60
2017,01,21,06,08,3.60
2017,01,21,06,09,3.60
2017,01,21,06,10,3.60
2017,01,21,06,11,3.60
2017,01,21,06,12,3.60
2017,01,21,06,13,3.60
2017,01,21,06,14,3.70
2017,01,21,06,15,3.70
2017,01,21,06,16,3.70
2017,01,21,06,17,3.70
2017,01,21,06,18,3.70
2017,01,21,06,19,3.70
2017,01,21,06,20,3.70
2017,01,21,06,21,3.70
2017,01,21,06,22,3.60
2017,01,21,06,23,3.60
2017,01,21,06,24,3.70
2017,01,21,06,25,3.60
2017,01,21,06,26,3.70
2017,01,21,06,27,3.70
2017,01,21,06,28,3.70
2017,01,21,06,29,3.70
2017,01,21,06,30,3.70
2017,01,21,06,31,3.70
2017,01,21,06,32,3.70
2017,01,21,06,33,3.70
2017,01,21,06,34,3.70
2017,01,21,06,35,3.70
2017,01,21,06,36,3.70
2017,01,21,06,37,3.70
2017,01,21,06,38,3.60
2017,01,21,06,39,3.60
2017,01,21,06,40,3.60
2017,01,21,06,41,3.60
2017,01,21,06,42,3.60
2017,01,21,06,43,3.60
2017,01,21,06,44,3.60
2017,01,21,06,45,3.60
2017,01,21,06,46,3.60
2017,01,21,06,47,3.60
2017,01,21,06,48,3.60
2017,01,21,06,49,3.60
2017,01,21,06,50,3.60
2017,01,21,06,51,3.60
2017,01,21,06,52,3.70
2017,01,21,06,53,3.70
2017,01,21,06,54,3.70
2017,01,21,06,55,3.80
2017,01,21,06,56,3.80
2017,01,21,06,57,3.80
2017,01,21,06,58,3.80
2017,01,21,06,59,3.80
2017,01,21,07,00,3.80
2017,01,21,07,01,3.80
2017,01,21,07,02,3.80
2017,01,21,07,03,3.80
2017,01,21,07,04,3.80
2017,01,21,07,05,3.80
2017,01,21,07,06,3.80
2017,01,21,07,07,3.80
2017,01,21,07,08,3.80
2017,01,21,07,09,3.90
2017,01,21,07,10,3.90
2017,01,21,07,11,3.90
2017,01,21,07,12,4.00
2017,01,21,07,13,4.00
2017,01,21,07,14,4.00
2017,01,21,07,15,4.00
2017,01,21,07,16,3.90
2017,01,21,07,17,3.90
2017,01,21,07,18,3.90
2017,01,21,07,19,3.90
2017,01,21,07,20,3.80
2017,01,21,07,21,3.80
2017,01,21,07,22,3.80
2017,01,21,07,23,3.80
2017,01,21,07,24,3.80
2017,01,21,07,25,3.80
2017,01,21,07,26,3.80
2017,01,21,07,27,3.80
2017,01,21,07,28,3.80
2017,01,21,07,29,3.70
2017,01,21,07,30,3.70
2017,01,21,07,31,3.70
2017,01,21,07,32,3.70
2017,01,21,07,33,3.70
2017,01,21,07,34,3.70
2017,01,21,07,35,3.70
2017,01,21,07,36,3.70
2017,01,21,07,37,3.70
2017,01,21,07,38,3.70
2017,01,21,07,39,3.70
2017,01,21,07,40,3.70
2017,01,21,07,41,3.70
2017,01,21,07,42,3.70
2017,01,21,07,43,3.70
2017,01,21,07,44,3.70
2017,01,21,07,45,3.70
2017,01,21,07,46,3.70
2017,01,21,07,47,3.70
2017,01,21,07,48,3.70
2017,01,21,07,49,3.70
2017,01,21,07,50,3.70
2017,01,21,07,51,3.70
2017,01,21,07,52,3.70
2017,01,21,07,53,3.70
2017,01,21,07,54,3.70
2017,01,21,07,55,3.60
2017,01,21,07,56,3.70
2017,01,21,07,57,3.70
2017,01,21,07,58,3.70
2017,01,21,07,59,3.70
2017,01,21,08,00,3.70
2017,01,21,08,01,3.70
2017,01,21,08,02,3.70
2017,01,21,08,03,3.70
2017,01,21,08,04,3.70
2017,01,21,08,05,3.70
2017,01,21,08,06,3.70
2017,01,21,08,07,3.70
2017,01,21,08,08,3.70
2017,01,21,08,09,3.70
2017,01,21,08,10,3.70
2017,01,21,08,11,3.70
2017,01,21,08,12,3.70
2017,01,21,08,13,3.70
2017,01,21,08,14,3.70
2017,01,21,08,15,3.70
2017,01,21,08,16,3.70
2017,01,21,08,17,3.70
2017,01,21,08,18,3.70
2017,01,21,08,19,3.70
2017,01,21,08,20,3.70
2017,01,21,08,21,3.70
2017,01,21,08,22,3.70
2017,01,21,08,23,3.70
2017,01,21,08,24,3.70
2017,01,21,08,25,3.70
2017,01,21,08,26,3.70
2017,01,21,08,27,3.70
2017,01,21,08,28,3.70
2017,01,21,08,29,3.80
2017,01,21,08,30,3.80
2017,01,21,08,31,3.80
2017,01,21,08,32,3.80
2017,01,21,08,33,3.80
2017,01,21,08,34,3.80
2017,01,21,08,35,3.90
2017,01,21,08,36,3.90
2017,01,21,08,37,3.90
2017,01,21,08,38,3.90
2017,01,21,08,39,3.90
2017,01,21,08,40,3.90
2017,01,21,08,41,3.90
2017,01,21,08,42,3.90
2017,01,21,08,43,3.90
2017,01,21,08,44,3.90
2017,01,21,08,45,3.90
2017,01,21,08,46,3.90
2017,01,21,08,47,3.90
2017,01,21,08,48,3.90
2017,01,21,08,49,3.90
2017,01,21,08,50,4.00
2017,01,21,08,51,4.00
2017,01,21,08,52,3.90
2017,01,21,08,53,3.90
2017,01,21,08,54,4.00
2017,01,21,08,55,4.00
2017,01,21,08,56,4.00
2017,01,21,08,57,4.00
2017,01,21,08,58,4.00
2017,01,21,08,59,4.00
2017,01,21,09,00,4.10
2017,01,21,09,01,4.10
2017,01,21,09,02,4.10
2017,01,21,09,03,4.10
2017,01,21,09,04,4.10
2017,01,21,09,05,4.10
2017,01,21,09,06,4.10
2017,01,21,09,07,4.10
2017,01,21,09,08,4.10
2017,01,21,09,09,4.10
2017,01,21,09,10,4.10
2017,01,21,09,11,4.10
2017,01,21,09,12,4.10
2017,01,21,09,13,4.10
2017,01,21,09,14,4.10
2017,01,21,09,15,4.20
2017,01,21,09,16,4.20
2017,01,21,09,17,4.20
2017,01,21,09,18,4.20
2017,01,21,09,19,4.20
2017,01,21,09,20,4.20
2017,01,21,09,21,4.20
2017,01,21,09,22,4.20
2017,01,21,09,23,4.20
2017,01,21,09,24,4.20
2017,01,21,09,25,4.30
2017,01,21,09,26,4.30
2017,01,21,09,27,4.30
2017,01,21,09,28,4.30
2017,01,21,09,29,4.30
2017,01,21,09,30,4.30
2017,01,21,09,31,4.40
2017,01,21,09,32,4.40
2017,01,21,09,33,4.40
2017,01,21,09,34,4.40
2017,01,21,09,35,4.40
2017,01,21,09,36,4.40
2017,01,21,09,37,4.40
2017,01,21,09,38,4.40
2017,01,21,09,39,4.40
2017,01,21,09,40,4.40
2017,01,21,09,41,4.40
2017,01,21,09,42,4.40
2017,01,21,09,43,4.50
2017,01,21,09,44,4.50
2017,01,21,09,45,4.50
2017,01,21,09,46,4.50
2017,01,21,09,47,4.60
2017,01,21,09,48,4.60
2017,01,21,09,49,4.60
2017,01,21,09,50,4.60
2017,01,21,09,51,4.60
2017,01,21,09,52,4.60
2017,01,21,09,53,4.70
2017,01,21,09,54,4.70
2017,01,21,09,55,4.70
2017,01,21,09,56,4.70
2017,01,21,09,57,4.70
2017,01,21,09,58,4.80
2017,01,21,09,59,4.80
2017,01,21,10,00,4.80
2017,01,21,10,01,4.80
2017,01,21,10,02,4.80
2017,01,21,10,03,4.80
2017,01,21,10,04,4.80
2017,01,21,10,05,4.90
2017,01,21,10,06,4.90
2017,01,21,10,07,4.90
2017,01,21,10,08,4.90
2017,01,21,10,09,4.90
2017,01,21,10,10,4.90
2017,01,21,10,11,4.90
2017,01,21,10,12,5.00
2017,01,21,10,13,5.00
2017,01,21,10,14,5.00
2017,01,21,10,15,5.00
2017,01,21,10,16,5.00
2017,01,21,10,17,5.00
2017,01,21,10,18,5.00
2017,01,21,10,19,5.00
2017,01,21,10,20,5.00
2017,01,21,10,21,5.10
2017,01,21,10,22,5.10
2017,01,21,10,23,5.10
2017,01,21,10,24,5.10
2017,01,21,10,25,5.10
2017,01,21,10,26,5.10
2017,01,21,10,27,5.10
2017,01,21,10,28,5.10
2017,01,21,10,29,5.10
2017,01,21,10,30,5.10
2017,01,21,10,31,5.10
2017,01,21,10,32,5.10
2017,01,21,10,33,5.10
2017,01,21,10,34,5.10
2017,01,21,10,35,5.10
2017,01,21,10,36,5.20
2017,01,21,10,37,5.20
2017,01,21,10,38,5.20
2017,01,21,10,39,5.20
2017,01,21,10,40,5.20
2017,01,21,10,41,5.30
2017,01,21,10,42,5.30
2017,01,21,10,43,5.30
2017,01,21,10,44,5.30
2017,01,21,10,45,5.40
2017,01,21,10,46,5.40
2017,01,21,10,47,5.40
2017,01,21,10,48,5.40
2017,01,21,10,49,5.50
2017,01,21,10,50,5.50
2017,01,21,10,51,5.60
2017,01,21,10,52,5.60
2017,01,21,10,53,5.60
2017,01,21,10,54,5.70
2017,01,21,10,55,5.70
2017,01,21,10,56,5.70
2017,01,21,10,57,5.70
2017,01,21,10,58,5.80
2017,01,21,10,59,5.80
2017,01,21,11,00,5.80
2017,01,21,11,01,5.80
2017,01,21,11,02,5.80
2017,01,21,11,03,5.90
2017,01,21,11,04,5.90
2017,01,21,11,05,5.90
2017,01,21,11,06,5.90
2017,01,21,11,07,5.90
2017,01,21,11,08,5.90
2017,01,21,11,09,5.90
2017,01,21,11,10,5.90
2017,01,21,11,11,5.90
2017,01,21,11,12,5.90
2017,01,21,11,13,5.90
2017,01,21,11,14,5.90
2017,01,21,11,15,5.90
2017,01,21,11,16,5.90
2017,01,21,11,17,5.90
2017,01,21,11,18,6.00
2017,01,21,11,19,6.00
2017,01,21,11,20,6.00
2017,01,21,11,21,6.00
2017,01,21,11,22,6.10
2017,01,21,11,23,6.10
2017,01,21,11,24,6.10
2017,01,21,11,25,6.10
2017,01,21,11,26,6.20
2017,01,21,11,27,6.20
2017,01,21,11,28,6.20
2017,01,21,11,29,6.20
2017,01,21,11,30,6.30
2017,01,21,11,31,6.30
2017,01,21,11,32,6.30
2017,01,21,11,33,6.30
2017,01,21,11,34,6.30
2017,01,21,11,35,6.30
2017,01,21,11,36,6.30
2017,01,21,11,37,6.30
2017,01,21,11,38,6.30
2017,01,21,11,39,6.30
2017,01,21,11,40,6.30
2017,01,21,11,41,6.30
2017,01,21,11,42,6.40
2017,01,21,11,43,6.40
2017,01,21,11,44,6.40
2017,01,21,11,45,6.40
2017,01,21,11,46,6.40
2017,01,21,11,47,6.40
2017,01,21,11,48,6.40
2017,01,21,11,49,6.40
2017,01,21,11,50,6.40
2017,01,21,11,51,6.40
2017,01,21,11,52,6.40
2017,01,21,11,53,6.40
2017,01,21,11,54,6.40
2017,01,21,11,55,6.40
2017,01,21,11,56,6.40
2017,01,21,11,57,6.50
2017,01,21,11,58,6.50
2017,01,21,11,59,6.50
2017,01,21,12,00,6.50
2017,01,21,12,01,6.50
2017,01,21,12,02,6.50
2017,01,21,12,03,6.50
2017,01,21,12,04,6.50
2017,01,21,12,05,6.50
2017,01,21,12,06,6.50
2017,01,21,12,07,6.50
2017,01,21,12,08,6.50
2017,01,21,12,09,6.50
2017,01,21,12,10,6.50
2017,01,21,12,11,6.50
2017,01,21,12,12,6.50
2017,01,21,12,13,6.40
2017,01,21,12,14,6.50
2017,01,21,12,15,6.50
2017,01,21,12,16,6.50
2017,01,21,12,17,6.50
2017,01,21,12,18,6.60
2017,01,21,12,19,6.60
2017,01,21,12,20,6.60
2017,01,21,12,21,6.60
2017,01,21,12,22,6.70
2017,01,21,12,23,6.70
2017,01,21,12,24,6.70
2017,01,21,12,25,6.80
2017,01,21,12,26,6.80
2017,01,21,12,27,6.80
2017,01,21,12,28,6.90
2017,01,21,12,29,6.90
2017,01,21,12,30,6.90
2017,01,21,12,31,6.90
2017,01,21,12,32,7.00
2017,01,21,12,33,7.00
2017,01,21,12,34,7.10
2017,01,21,12,35,7.10
2017,01,21,12,36,7.10
2017,01,21,12,37,7.10
2017,01,21,12,38,7.10
2017,01,21,12,39,7.10
2017,01,21,12,40,7.20
2017,01,21,12,41,7.20
2017,01,21,12,42,7.20
2017,01,21,12,43,7.20
2017,01,21,12,44,7.20
2017,01,21,12,45,7.30
2017,01,21,12,46,7.30
2017,01,21,12,47,7.30
2017,01,21,12,48,7.30
2017,01,21,12,49,7.30
2017,01,21,12,50,7.30
2017,01,21,12,51,7.30
2017,01,21,12,52,7.30
2017,01,21,12,53,7.30
2017,01,21,12,54,7.30
2017,01,21,12,55,7.30
2017,01,21,12,56,7.30
2017,01,21,12,57,7.30
2017,01,21,12,58,7.30
2017,01,21,12,59,7.30
2017,01,21,13,00,7.30
2017,01,21,13,01,7.30
2017,01,21,13,02,7.30
2017,01,21,13,03,7.40
2017,01,21,13,04,7.40
2017,01,21,13,05,7.40
2017,01,21,13,06,7.40
2017,01,21,13,07,7.40
2017,01,21,13,08,7.50
2017,01,21,13,09,7.50
2017,01,21,13,10,7.60
2017,01,21,13,11,7.60
2017,01,21,13,12,7.60
2017,01,21,13,13,7.60
2017,01,21,13,14,7.70
2017,01,21,13,15,7.70
2017,01,21,13,16,7.70
2017,01,21,13,17,7.80
2017,01,21,13,18,7.80
2017,01,21,13,19,7.70
2017,01,21,13,20,7.70
2017,01,21,13,21,7.70
2017,01,21,13,22,7.80
2017,01,21,13,23,7.80
2017,01,21,13,24,7.80
2017,01,21,13,25,7.80
2017,01,21,13,26,7.80
2017,01,21,13,27,7.90
2017,01,21,13,28,7.90
2017,01,21,13,29,7.90
2017,01,21,13,30,8.00
2017,01,21,13,31,8.00
2017,01,21,13,32,8.00
2017,01,21,13,33,8.10
2017,01,21,13,34,8.10
2017,01,21,13,35,8.10
2017,01,21,13,36,8.10
2017,01,21,13,37,8.10
2017,01,21,13,38,8.20
2017,01,21,13,39,8.20
2017,01,21,13,40,8.10
2017,01,21,13,41,8.00
2017,01,21,13,42,7.90
2017,01,21,13,43,8.00
2017,01,21,13,44,8.10
2017,01,21,13,45,8.20
2017,01,21,13,46,8.30
2017,01,21,13,47,8.50
2017,01,21,13,48,8.50
2017,01,21,13,49,8.50
2017,01,21,13,50,8.60
2017,01,21,13,51,8.60
2017,01,21,13,52,8.70
2017,01,21,13,53,8.70
2017,01,21,13,54,8.80
2017,01,21,13,55,8.80
2017,01,21,13,56,8.90
2017,01,21,13,57,9.00
2017,01,21,13,58,9.00
2017,01,21,13,59,9.00
2017,01,21,14,00,9.00
2017,01,21,14,01,9.00
2017,01,21,14,02,9.00
2017,01,21,14,03,9.00
2017,01,21,14,04,9.00
2017,01,21,14,05,8.90
2017,01,21,14,06,8.80
2017,01,21,14,07,8.80
2017,01,21,14,08,8.80
2017,01,21,14,09,8.70
2017,01,21,14,10,8.70
2017,01,21,14,11,8.70
2017,01,21,14,12,8.70
2017,01,21,14,13,8.70
2017,01,21,14,14,8.70
2017,01,21,14,15,8.60
2017,01,21,14,16,8.60
2017,01,21,14,17,8.60
2017,01,21,14,18,8.60
2017,01,21,14,19,8.60
2017,01,21,14,20,8.60
2017,01,21,14,21,8.60
2017,01,21,14,22,8.60
2017,01,21,14,23,8.60
2017,01,21,14,24,8.50
2017,01,21,14,25,8.50
2017,01,21,14,26,8.50
2017,01,21,14,27,8.50
2017,01,21,14,28,8.60
2017,01,21,14,29,8.60
2017,01,21,14,30,8.60
2017,01,21,14,31,8.50
2017,01,21,14,32,8.60
2017,01,21,14,33,8.60
2017,01,21,14,34,8.60
2017,01,21,14,35,8.70
2017,01,21,14,36,8.70
2017,01,21,14,37,8.70
2017,01,21,14,38,8.70
2017,01,21,14,39,8.60
2017,01,21,14,40,8.60
2017,01,21,14,41,8.50
2017,01,21,14,42,8.50
2017,01,21,14,43,8.40
2017,01,21,14,44,8.40
2017,01,21,14,45,8.30
2017,01,21,14,46,8.30
2017,01,21,14,47,8.30
2017,01,21,14,48,8.20
2017,01,21,14,49,8.20
2017,01,21,14,50,8.20
2017,01,21,14,51,8.20
2017,01,21,14,52,8.20
2017,01,21,14,53,8.20
2017,01,21,14,54,8.20
2017,01,21,14,55,8.20
2017,01,21,14,56,8.20
2017,01,21,14,57,8.20
2017,01,21,14,58,8.20
2017,01,21,14,59,8.20
2017,01,21,15,00,8.30
2017,01,21,15,01,8.30
2017,01,21,15,02,8.30
2017,01,21,15,03,8.30
2017,01,21,15,04,8.30
2017,01,21,15,05,8.30
2017,01,21,15,06,8.30
2017,01,21,15,07,8.30
2017,01,21,15,08,8.30
2017,01,21,15,09,8.30
2017,01,21,15,10,8.30
2017,01,21,15,11,8.30
2017,01,21,15,12,8.30
2017,01,21,15,13,8.30
2017,01,21,15,14,8.20
2017,01,21,15,15,8.20
2017,01,21,15,16,8.20
2017,01,21,15,17,8.20
2017,01,21,15,18,8.20
2017,01,21,15,19,8.20
2017,01,21,15,20,8.20
2017,01,21,15,21,8.20
2017,01,21,15,22,8.20
2017,01,21,15,23,8.20
2017,01,21,15,24,8.20
2017,01,21,15,25,8.20
2017,01,21,15,26,8.20
2017,01,21,15,27,8.10
2017,01,21,15,28,8.10
2017,01,21,15,29,8.10
2017,01,21,15,30,8.10
2017,01,21,15,31,8.10
2017,01,21,15,32,8.10
2017,01,21,15,33,8.10
2017,01,21,15,34,8.10
2017,01,21,15,35,8.00
2017,01,21,15,36,8.00
2017,01,21,15,37,8.00
2017,01,21,15,38,8.00
2017,01,21,15,39,8.00
2017,01,21,15,40,8.00
2017,01,21,15,41,8.00
2017,01,21,15,42,7.90
2017,01,21,15,43,7.90
2017,01,21,15,44,7.90
2017,01,21,15,45,7.90
2017,01,21,15,46,7.90
2017,01,21,15,47,7.90
2017,01,21,15,48,7.90
2017,01,21,15,49,7.90
2017,01,21,15,50,7.90
2017,01,21,15,51,7.90
2017,01,21,15,52,7.80
2017,01,21,15,53,7.80
2017,01,21,15,54,7.80
2017,01,21,15,55,7.80
2017,01,21,15,56,7.80
2017,01,21,15,57,7.80
2017,01,21,15,58,7.80
2017,01,21,15,59,7.80
2017,01,21,16,00,7.70
2017,01,21,16,01,7.70
2017,01,21,16,02,7.70
2017,01,21,16,03,7.70
2017,01,21,16,04,7.70
2017,01,21,16,05,7.70
2017,01,21,16,06,7.60
2017,01,21,16,07,7.60
2017,01,21,16,08,7.60
2017,01,21,16,09,7.60
2017,01,21,16,10,7.60
2017,01,21,16,11,7.60
2017,01,21,16,12,7.60
2017,01,21,16,13,7.60
2017,01,21,16,14,7.50
2017,01,21,16,15,7.50
2017,01,21,16,16,7.50
2017,01,21,16,17,7.50
2017,01,21,16,18,7.50
2017,01,21,16,19,7.50
2017,01,21,16,20,7.40
2017,01,21,16,21,7.40
2017,01,21,16,22,7.40
2017,01,21,16,23,7.40
2017,01,21,16,24,7.40
2017,01,21,16,25,7.40
2017,01,21,16,26,7.30
2017,01,21,16,27,7.30
2017,01,21,16,28,7.30
2017,01,21,16,29,7.30
2017,01,21,16,30,7.30
2017,01,21,16,31,7.20
2017,01,21,16,32,7.20
2017,01,21,16,33,7.20
2017,01,21,16,34,7.20
2017,01,21,16,35,7.20
2017,01,21,16,36,7.20
2017,01,21,16,37,7.20
2017,01,21,16,38,7.10
2017,01,21,16,39,7.10
2017,01,21,16,40,7.10
2017,01,21,16,41,7.10
2017,01,21,16,42,7.10
2017,01,21,16,43,7.00
2017,01,21,16,44,7.00
2017,01,21,16,45,7.00
2017,01,21,16,46,7.00
2017,01,21,16,47,6.90
2017,01,21,16,48,6.90
2017,01,21,16,49,6.90
2017,01,21,16,50,6.90
2017,01,21,16,51,6.80
2017,01,21,16,52,6.80
2017,01,21,16,53,6.80
2017,01,21,16,54,6.80
2017,01,21,16,55,6.80
2017,01,21,16,56,6.80
2017,01,21,16,57,6.80
2017,01,21,16,58,6.80
2017,01,21,16,59,6.80
2017,01,21,17,00,6.70
2017,01,21,17,01,6.70
2017,01,21,17,02,6.70
2017,01,21,17,03,6.70
2017,01,21,17,04,6.70
2017,01,21,17,05,6.70
2017,01,21,17,06,6.70
2017,01,21,17,07,6.70
2017,01,21,17,08,6.60
2017,01,21,17,09,6.60
2017,01,21,17,10,6.60
2017,01,21,17,11,6.60
2017,01,21,17,12,6.60
2017,01,21,17,13,6.50
2017,01,21,17,14,6.50
2017,01,21,17,15,6.50
2017,01,21,17,16,6.50
2017,01,21,17,17,6.40
2017,01,21,17,18,6.40
2017,01,21,17,19,6.40
2017,01,21,17,20,6.40
2017,01,21,17,21,6.40
2017,01,21,17,22,6.30
2017,01,21,17,23,6.30
2017,01,21,17,24,6.30
2017,01,21,17,25,6.30
2017,01,21,17,26,6.30
2017,01,21,17,27,6.20
2017,01,21,17,28,6.20
2017,01,21,17,29,6.20
2017,01,21,17,30,6.20
2017,01,21,17,31,6.20
2017,01,21,17,32,6.10
2017,01,21,17,33,6.10
2017,01,21,17,34,6.10
2017,01,21,17,35,6.10
2017,01,21,17,36,6.00
2017,01,21,17,37,6.00
2017,01,21,17,38,5.90
2017,01,21,17,39,5.90
2017,01,21,17,40,5.90
2017,01,21,17,41,5.80
2017,01,21,17,42,5.80
2017,01,21,17,43,5.80
2017,01,21,17,44,5.80
2017,01,21,17,45,5.70
2017,01,21,17,46,5.70
2017,01,21,17,47,5.70
2017,01,21,17,48,5.70
2017,01,21,17,49,5.60
2017,01,21,17,50,5.60
2017,01,21,17,51,5.60
2017,01,21,17,52,5.60
2017,01,21,17,53,5.60
2017,01,21,17,54,5.60
2017,01,21,17,55,5.60
2017,01,21,17,56,5.60
2017,01,21,17,57,5.60
2017,01,21,17,58,5.60
2017,01,21,17,59,5.60
2017,01,21,18,00,5.50
2017,01,21,18,01,5.50
2017,01,21,18,02,5.50
2017,01,21,18,03,5.40
2017,01,21,18,04,5.40
2017,01,21,18,05,5.40
2017,01,21,18,06,5.40